Welcome to Northern Hawkes Bay. New Zealand.
PWS Header
      nz Flag



Hit Counter


W3C Valid W3C Valid logo


    Wairoa

Select any of the Stations below to visit their websites.










Historic Data from Weather Underground
Select the location of interest below. Wairoa is the default. Please have patience, this Data is slow to load in.
Northern Hawkes Bay Historical Data
Daily Summary for January 6, 2017 Units:  English    Metric   Both
« Previous Day
Next Day »
Daily Weekly Monthly Yearly Custom
  High: Low: Average:
Temperature: 76.5 °F 46.8 °F 63 °F
Dew Point: 54 °F 41.2 °F 46 °F
Humidity: 99% 30% 60%
Wind Speed: 17.4mph 0mph 5.8mph
Wind Gust: 26.6mph - -
Wind- - NW
Pressure: 30.1 in 29.8 in -
Precipitation: 0 in    
Historical Graphs
 
 
Tabular Data for January 6, 2017
Time Temperature Dew Point Pressure Wind Wind Speed Wind Gust Humidity Rainfall Rate (Hourly) solar
00:03 54.3 °F 47.3 °F 30.1 in NW 1.6 mph 3.1 mph 77% 0 in 0 W/m2
00:08 54 °F 47.7 °F 30.1 in NW 1.6 mph 3.1 mph 79% 0 in 0 W/m2
00:13 53.6 °F 47.8 °F 30.1 in Calm   3.1 mph 81% 0 in 0 W/m2
00:18 53.4 °F 48 °F 30.1 in NNW 1.6 mph 2.2 mph 82% 0 in 0 W/m2
00:23 53.2 °F 48.2 °F 30.1 in NNW 1.6 mph 3.1 mph 83% 0 in 0 W/m2
00:28 52.9 °F 48.2 °F 30.1 in NNW 0.7 mph 3.1 mph 84% 0 in 0 W/m2
00:33 52.7 °F 48.4 °F 30.1 in Calm   2.2 mph 85% 0 in 0 W/m2
00:38 52.5 °F 48 °F 30.1 in NW 1.6 mph 2.2 mph 85% 0 in 0 W/m2
00:43 52.5 °F 48.6 °F 30.1 in NW 0.7 mph 2.2 mph 86% 0 in 0 W/m2
00:48 52.3 °F 48.4 °F 30.1 in NW 0.7 mph 2.2 mph 86% 0 in 0 W/m2
00:53 52.3 °F 48.6 °F 30.1 in NW 0.7 mph 3.1 mph 87% 0 in 0 W/m2
00:58 52.2 °F 48.4 °F 30.1 in NW 0.7 mph 3.1 mph 87% 0 in 0 W/m2
01:03 52 °F 48.2 °F 30.1 in Calm   2.2 mph 87% 0 in 0 W/m2
01:08 51.6 °F 48.2 °F 30.1 in NNW 0.7 mph 1.6 mph 88% 0 in 0 W/m2
01:13 51.6 °F 48.6 °F 30.1 in North 0.7 mph 2.2 mph 89% 0 in 0 W/m2
01:19 51.4 °F 48.6 °F 30.1 in North 0.7 mph 2.2 mph 90% 0 in 0 W/m2
01:24 51.3 °F 48.4 °F 30.1 in North 0.7 mph 2.2 mph 90% 0 in 0 W/m2
01:29 51.3 °F 48.4 °F 30.1 in NNW 0.7 mph 2.2 mph 90% 0 in 0 W/m2
01:34 51.3 °F 48.7 °F 30.1 in Calm   2.2 mph 91% 0 in 0 W/m2
01:39 51.1 °F 48.6 °F 30.1 in NW 0.7 mph 2.2 mph 91% 0 in 0 W/m2
01:44 51.1 °F 48.6 °F 30.1 in NW 0.7 mph 2.2 mph 91% 0 in 0 W/m2
01:49 50.9 °F 48.4 °F 30.1 in NW 0.7 mph 2.2 mph 91% 0 in 0 W/m2
01:54 50.9 °F 48.7 °F 30.1 in NW 1.6 mph 3.1 mph 92% 0 in 0 W/m2
01:59 50.9 °F 48.7 °F 30.1 in NW 1.6 mph 3.1 mph 92% 0 in 0 W/m2
02:04 50.7 °F 48.7 °F 30.1 in NW 1.6 mph 3.1 mph 93% 0 in 0 W/m2
02:09 50.7 °F 48.7 °F 30.1 in NW 0.7 mph 3.1 mph 93% 0 in 0 W/m2
02:14 50.5 °F 48.6 °F 30.1 in NW 0.7 mph 3.1 mph 93% 0 in 0 W/m2
02:19 50.4 °F 48.4 °F 30.1 in NW 0.7 mph 2.2 mph 93% 0 in 0 W/m2
02:24 50.2 °F 48.2 °F 30.1 in NW 1.6 mph 2.2 mph 93% 0 in 0 W/m2
02:29 50.2 °F 48.2 °F 30.1 in Calm   2.2 mph 93% 0 in 0 W/m2
02:34 50.2 °F 48.6 °F 30.1 in NW 0.7 mph 2.2 mph 94% 0 in 0 W/m2
02:39 50 °F 48.4 °F 30.1 in NW 0.7 mph 3.1 mph 94% 0 in 0 W/m2
02:44 49.8 °F 48.4 °F 30.1 in NW 0.7 mph 3.1 mph 95% 0 in 0 W/m2
02:49 49.8 °F 48.4 °F 30.1 in NNW 0.7 mph 2.2 mph 95% 0 in 0 W/m2
02:54 49.6 °F 48.4 °F 30.1 in NNW 1.6 mph 2.2 mph 95% 0 in 0 W/m2
02:59 49.5 °F 48.4 °F 30.1 in NNW 0.7 mph 3.1 mph 96% 0 in 0 W/m2
03:04 49.5 °F 48.4 °F 30.1 in NNW 0.7 mph 3.1 mph 96% 0 in 0 W/m2
03:09 49.3 °F 48.2 °F 30.1 in NW 0.7 mph 2.2 mph 96% 0 in 0 W/m2
03:14 49.3 °F 48.2 °F 30.1 in NNW 2.2 mph 3.1 mph 96% 0 in 0 W/m2
03:19 49.3 °F 48.2 °F 30.1 in NNW 1.6 mph 3.1 mph 96% 0 in 0 W/m2
03:24 49.3 °F 48.6 °F 30.1 in NNW 3.1 mph 3.8 mph 97% 0 in 0 W/m2
03:29 49.3 °F 48.6 °F 30.1 in NW 0.7 mph 3.8 mph 97% 0 in 0 W/m2
03:34 49.1 °F 48.4 °F 30.1 in NNW 1.6 mph 3.8 mph 97% 0 in 0 W/m2
03:39 48.9 °F 48 °F 30.1 in NNW 2.2 mph 3.1 mph 97% 0 in 0 W/m2
03:44 48.9 °F 48 °F 30.1 in Calm   3.1 mph 97% 0 in 0 W/m2
03:49 48.7 °F 47.8 °F 30.1 in North 0.7 mph 3.1 mph 97% 0 in 0 W/m2
03:54 48.4 °F 47.8 °F 30.1 in Calm   3.1 mph 98% 0 in 0 W/m2
03:59 48.2 °F 47.7 °F 30 in Calm   2.2 mph 98% 0 in 0 W/m2
04:04 48.2 °F 47.7 °F 30 in NNW 0.7 mph 2.2 mph 98% 0 in 0 W/m2
04:09 48 °F 47.8 °F 30 in NW 2.2 mph 3.1 mph 99% 0 in 0 W/m2
04:14 47.8 °F 47.7 °F 30 in NNW 0.7 mph 3.1 mph 99% 0 in 0 W/m2
04:19 47.7 °F 47.5 °F 30 in North 1.6 mph 3.1 mph 99% 0 in 0 W/m2
04:24 47.7 °F 47.5 °F 30 in North 0.7 mph 3.1 mph 99% 0 in 0 W/m2
04:29 47.5 °F 47.1 °F 30 in NNW 2.2 mph 4.5 mph 99% 0 in 0 W/m2
04:34 47.5 °F 47.1 °F 30 in NNW 1.6 mph 4.5 mph 99% 0 in 0 W/m2
04:39 47.5 °F 47.1 °F 30 in NNW 2.2 mph 3.8 mph 99% 0 in 0 W/m2
04:44 47.7 °F 47.5 °F 30 in NNW 2.2 mph 4.5 mph 99% 0 in 0 W/m2
04:49 47.7 °F 47.5 °F 30 in NNW 3.1 mph 5.4 mph 99% 0 in 0 W/m2
04:54 47.7 °F 47.5 °F 30 in NNW 3.1 mph 6 mph 99% 0 in 0 W/m2
04:59 47.7 °F 47.5 °F 30 in NW 3.8 mph 6 mph 99% 0 in 0 W/m2
05:04 47.7 °F 47.5 °F 30 in NW 3.8 mph 6 mph 99% 0 in 0 W/m2
05:09 47.7 °F 47.5 °F 30 in NNW 3.1 mph 6 mph 99% 0 in 0 W/m2
05:14 47.5 °F 47.1 °F 30 in NW 3.1 mph 6 mph 99% 0 in 0 W/m2
05:19 47.3 °F 46.9 °F 30 in NNW 4.5 mph 5.4 mph 99% 0 in 0 W/m2
05:24 47.1 °F 46.9 °F 30 in NNW 3.8 mph 5.4 mph 99% 0 in 0 W/m2
05:29 47.1 °F 46.9 °F 30 in NNW 3.8 mph 5.4 mph 99% 0 in 0 W/m2
05:34 46.9 °F 46.8 °F 30 in NNW 3.1 mph 6 mph 99% 0 in 0 W/m2
05:39 46.9 °F 46.8 °F 30 in NW 4.5 mph 6 mph 99% 0 in 0 W/m2
05:44 46.9 °F 46.8 °F 30 in NNW 4.5 mph 6.9 mph 99% 0 in 0 W/m2
05:49 46.9 °F 46.8 °F 30 in NNW 3.8 mph 6.9 mph 99% 0 in 1 W/m2
05:54 46.9 °F 46.8 °F 30 in NNW 2.2 mph 5.4 mph 99% 0 in 4 W/m2
05:59 46.8 °F 46.6 °F 30 in NNW 2.2 mph 5.4 mph 99% 0 in 6 W/m2
06:04 46.8 °F 46.6 °F 30 in North 1.6 mph 5.4 mph 99% 0 in 9 W/m2
06:09 46.8 °F 46.6 °F 30 in North 1.6 mph 4.5 mph 99% 0 in 13 W/m2
06:14 46.8 °F 46.6 °F 30 in North 3.1 mph 5.4 mph 99% 0 in 15 W/m2
06:19 46.9 °F 46.8 °F 30 in NNW 3.1 mph 6 mph 99% 0 in 19 W/m2
06:24 47.1 °F 46.9 °F 30 in NNW 3.1 mph 6 mph 99% 0 in 23 W/m2
06:29 47.3 °F 46.9 °F 30 in NNW 3.1 mph 5.4 mph 99% 0 in 30 W/m2
06:34 47.7 °F 47.5 °F 30 in NNW 3.8 mph 6 mph 99% 0 in 32 W/m2
06:39 48.2 °F 47.8 °F 30 in NNW 5.4 mph 8.3 mph 99% 0 in 67 W/m2
06:44 48.7 °F 48.6 °F 30 in NNW 3.8 mph 8.3 mph 99% 0 in 75 W/m2
06:49 49.6 °F 48.7 °F 30 in NNW 4.5 mph 8.3 mph 97% 0 in 85 W/m2
06:54 50.2 °F 48.6 °F 30 in NNW 3.1 mph 8.3 mph 94% 0 in 92 W/m2
06:59 50.9 °F 48.9 °F 30 in North 3.8 mph 6.9 mph 93% 0 in 99 W/m2
07:04 51.3 °F 48.4 °F 30 in North 3.1 mph 6.9 mph 90% 0 in 108 W/m2
07:09 51.6 °F 48.2 °F 30 in NNW 3.8 mph 6.9 mph 88% 0 in 119 W/m2
07:14 52.2 °F 47.8 °F 30 in NNW 2.2 mph 6.9 mph 85% 0 in 128 W/m2
07:19 52.9 °F 48.2 °F 30 in NNW 4.5 mph 7.6 mph 84% 0 in 139 W/m2
07:24 53.4 °F 48.4 °F 30 in NNW 3.1 mph 7.6 mph 83% 0 in 149 W/m2
07:29 53.2 °F 47.8 °F 30 in North 4.5 mph 7.6 mph 82% 0 in 150 W/m2
07:34 53.6 °F 47.8 °F 30 in North 5.4 mph 7.6 mph 81% 0 in 162 W/m2
07:39 54.1 °F 48.4 °F 30 in NNW 3.8 mph 6.9 mph 81% 0 in 179 W/m2
07:44 54.9 °F 49.1 °F 30 in NNW 4.5 mph 6.9 mph 81% 0 in 193 W/m2
07:49 55.4 °F 48.9 °F 30 in NNW 3.1 mph 6.9 mph 79% 0 in 211 W/m2
07:54 56.5 °F 49.6 °F 30 in NNW 3.1 mph 6.9 mph 78% 0 in 234 W/m2
07:59 56.7 °F 49.3 °F 30 in NNW 4.5 mph 5.4 mph 76% 0 in 224 W/m2
08:04 57.2 °F 49.6 °F 30 in NW 3.8 mph 5.4 mph 76% 0 in 233 W/m2
08:09 57.6 °F 50.2 °F 30 in NNW 3.8 mph 5.4 mph 76% 0 in 255 W/m2
08:14 58.5 °F 50.5 °F 30 in NNW 2.2 mph 4.5 mph 75% 0 in 271 W/m2
08:19 59.2 °F 50.5 °F 30 in NNW 3.1 mph 5.4 mph 73% 0 in 309 W/m2
08:24 59.7 °F 51.1 °F 30 in NNW 3.1 mph 5.4 mph 73% 0 in 317 W/m2
08:29 60.4 °F 51.8 °F 30 in NW 2.2 mph 5.4 mph 73% 0 in 348 W/m2
08:34 61.7 °F 51.4 °F 30 in North 0.7 mph 4.5 mph 69% 0 in 357 W/m2
08:39 63 °F 51.4 °F 30 in NNE 1.6 mph 4.5 mph 66% 0 in 396 W/m2
08:44 64.8 °F 53.2 °F 30 in North 2.2 mph 4.5 mph 66% 0 in 427 W/m2
08:49 66 °F 54 °F 30 in NNW 3.8 mph 4.5 mph 65% 0 in 458 W/m2
08:54 66.6 °F 52.7 °F 30 in NNW 4.5 mph 6.9 mph 61% 0 in 475 W/m2
08:59 66.9 °F 52.5 °F 30 in North 2.2 mph 6.9 mph 60% 0 in 477 W/m2
09:04 68.2 °F 53.2 °F 30 in NNW 3.8 mph 6.9 mph 59% 0 in 522 W/m2
09:09 68.4 °F 52.2 °F 30 in NNW 4.5 mph 7.6 mph 56% 0 in 551 W/m2
09:14 68 °F 51.3 °F 30 in NNW 4.5 mph 9.2 mph 55% 0 in 564 W/m2
09:19 68.2 °F 50.9 °F 30 in North 4.5 mph 9.2 mph 54% 0 in 508 W/m2
09:24 68.7 °F 50.9 °F 30 in NNW 6 mph 9.8 mph 53% 0 in 575 W/m2
09:29 68 °F 50.4 °F 30 in North 3.1 mph 13 mph 53% 0 in 607 W/m2
09:34 68.2 °F 50.4 °F 30 in North 6 mph 13 mph 53% 0 in 571 W/m2
09:39 68.5 °F 50.2 °F 30 in North 6.9 mph 13.6 mph 52% 0 in 512 W/m2
09:44 68.4 °F 49.6 °F 30 in North 6.9 mph 13.6 mph 51% 0 in 469 W/m2
09:49 68.4 °F 50.5 °F 30 in North 6.9 mph 12.1 mph 53% 0 in 518 W/m2
09:54 68.5 °F 50.7 °F 30 in North 7.6 mph 13 mph 53% 0 in 597 W/m2
09:59 69.4 °F 50.5 °F 30 in NNW 6.9 mph 13.6 mph 51% 0 in 690 W/m2
10:05 70 °F 50 °F 30 in NNW 9.8 mph 17.4 mph 49% 0 in 707 W/m2
10:10 70.2 °F 46.6 °F 30 in NNW 8.3 mph 19 mph 43% 0 in 778 W/m2
10:15 70.7 °F 46.6 °F 30 in NW 10.7 mph 19 mph 42% 0 in 792 W/m2
10:20 70.9 °F 46.8 °F 30 in NNW 11.4 mph 19 mph 42% 0 in 796 W/m2
10:25 70.5 °F 46.2 °F 30 in NW 9.8 mph 22.1 mph 42% 0 in 807 W/m2
10:30 71.1 °F 46.8 °F 30 in NW 9.8 mph 22.1 mph 42% 0 in 827 W/m2
10:35 71.6 °F 46.8 °F 30 in NNW 4.5 mph 21.3 mph 41% 0 in 852 W/m2
10:40 71.6 °F 45.3 °F 30 in NNW 10.7 mph 15.9 mph 39% 0 in 864 W/m2
10:45 72.3 °F 46 °F 30 in NNW 13 mph 18.3 mph 39% 0 in 913 W/m2
10:50 72.1 °F 43.7 °F 30 in NW 13.6 mph 21.3 mph 36% 0 in 735 W/m2
10:55 71.2 °F 44.4 °F 30 in NNW 13 mph 21.3 mph 38% 0 in 496 W/m2
11:00 71.4 °F 43.2 °F 30 in NNW 9.2 mph 22.1 mph 36% 0 in 715 W/m2
11:05 71.6 °F 42.4 °F 30 in NW 9.8 mph 22.1 mph 35% 0 in 692 W/m2
11:10 71.4 °F 43.2 °F 30 in NW 10.7 mph 18.3 mph 36% 0 in 813 W/m2
11:15 71.8 °F 43.3 °F 29.9 in NW 14.5 mph 20.6 mph 36% 0 in 790 W/m2
11:20 72.3 °F 43.2 °F 30 in NW 12.1 mph 20.6 mph 35% 0 in 822 W/m2
11:25 72.1 °F 42.3 °F 29.9 in NW 8.3 mph 19 mph 34% 0 in 693 W/m2
11:30 72.5 °F 44.1 °F 29.9 in NW 9.2 mph 18.3 mph 36% 0 in 961 W/m2
11:35 72.9 °F 43.5 °F 29.9 in NW 13.6 mph 18.3 mph 35% 0 in 824 W/m2
11:40 72.1 °F 45.1 °F 29.9 in NW 7.6 mph 18.3 mph 38% 0 in 661 W/m2
11:45 72.1 °F 43 °F 29.9 in NNW 8.3 mph 21.3 mph 35% 0 in 646 W/m2
11:50 71.8 °F 43.3 °F 29.9 in NNW 7.6 mph 21.3 mph 36% 0 in 732 W/m2
11:55 72.5 °F 44.8 °F 29.9 in NW 9.2 mph 21.3 mph 37% 0 in 865 W/m2
12:00 72.7 °F 44.2 °F 29.9 in NW 4.5 mph 17.4 mph 36% 0 in 967 W/m2
12:05 73.6 °F 45 °F 29.9 in NW 6.9 mph 18.3 mph 36% 0 in 972 W/m2
12:10 73.4 °F 45 °F 29.9 in NNW 3.8 mph 18.3 mph 36% 0 in 953 W/m2
12:15 73.6 °F 46.4 °F 29.9 in NNW 7.6 mph 14.5 mph 38% 0 in 923 W/m2
12:20 74.5 °F 46.6 °F 29.9 in NNW 11.4 mph 15.9 mph 37% 0 in 982 W/m2
12:26 73.8 °F 45.9 °F 29.9 in NW 4.5 mph 17.4 mph 37% 0 in 952 W/m2
12:31 74.5 °F 45.9 °F 29.9 in NW 15.2 mph 19.7 mph 36% 0 in 950 W/m2
12:36 74.5 °F 46.6 °F 29.9 in NNW 9.8 mph 19.7 mph 37% 0 in 914 W/m2
12:41 74.3 °F 45.7 °F 29.9 in NNW 15.9 mph 21.3 mph 36% 0 in 835 W/m2
12:46 73.2 °F 44.8 °F 29.9 in NNW 9.8 mph 21.3 mph 36% 0 in 701 W/m2
12:51 74.1 °F 46.2 °F 29.9 in NNW 8.3 mph 21.3 mph 37% 0 in 906 W/m2
12:56 74.3 °F 45.7 °F 29.9 in NNW 6.9 mph 16.8 mph 36% 0 in 759 W/m2
13:01 74.3 °F 45.7 °F 29.9 in North 8.3 mph 18.3 mph 36% 0 in 745 W/m2
13:06 74.1 °F 45.5 °F 29.9 in North 3.8 mph 18.3 mph 36% 0 in 404 W/m2
13:11 73.9 °F 46 °F 29.9 in North 8.3 mph 17.4 mph 37% 0 in 372 W/m2
13:16 73.4 °F 45 °F 29.9 in NNW 8.3 mph 17.4 mph 36% 0 in 383 W/m2
13:21 73 °F 43 °F 29.9 in NNW 11.4 mph 18.3 mph 34% 0 in 519 W/m2
13:26 73 °F 43 °F 29.9 in NW 7.6 mph 18.3 mph 34% 0 in 499 W/m2
13:31 74.3 °F 45.7 °F 29.9 in NW 10.7 mph 16.8 mph 36% 0 in 442 W/m2
13:37 74.3 °F 44.1 °F 29.9 in NW 8.3 mph 17.4 mph 34% 0 in 774 W/m2
13:42 74.3 °F 43.3 °F 29.9 in NW 16.8 mph 23.5 mph 33% 0 in 635 W/m2
13:47 73.8 °F 43.7 °F 29.9 in NW 10.7 mph 23.5 mph 34% 0 in 716 W/m2
13:52 73.8 °F 43 °F 29.9 in NW 12.1 mph 22.8 mph 33% 0 in 884 W/m2
13:57 74.8 °F 45.3 °F 29.9 in WNW 6 mph 22.8 mph 35% 0 in 612 W/m2
14:02 75 °F 45.5 °F 29.9 in WNW 5.4 mph 17.4 mph 35% 0 in 467 W/m2
14:07 73.9 °F 43.2 °F 29.9 in WNW 6 mph 22.1 mph 33% 0 in 645 W/m2
14:12 73.8 °F 43.7 °F 29.9 in WNW 6 mph 22.1 mph 34% 0 in 495 W/m2
14:17 74.1 °F 44.8 °F 29.9 in West 6.9 mph 17.4 mph 35% 0 in 567 W/m2
14:22 73.8 °F 44.4 °F 29.9 in WNW 9.8 mph 15.9 mph 35% 0 in 604 W/m2
14:27 74.1 °F 44.8 °F 29.9 in NW 6.9 mph 17.4 mph 35% 0 in 690 W/m2
14:32 75.4 °F 45.1 °F 29.9 in NW 7.6 mph 17.4 mph 34% 0 in 748 W/m2
14:37 75.4 °F 45.1 °F 29.9 in NW 9.2 mph 19 mph 34% 0 in 1003 W/m2
14:42 76.5 °F 46 °F 29.9 in NW 9.2 mph 19 mph 34% 0 in 972 W/m2
14:47 75.7 °F 45.3 °F 29.9 in WNW 11.4 mph 19 mph 34% 0 in 734 W/m2
14:52 75.2 °F 45 °F 29.9 in WNW 7.6 mph 19 mph 34% 0 in 901 W/m2
14:57 75.6 °F 45.3 °F 29.9 in NW 11.4 mph 19 mph 34% 0 in 781 W/m2
15:02 74.8 °F 44.6 °F 29.9 in NNW 14.5 mph 22.8 mph 34% 0 in 890 W/m2
15:07 74.7 °F 41.2 °F 29.9 in NNW 12.1 mph 25.1 mph 30% 0 in 872 W/m2
15:12 75.2 °F 42.4 °F 29.9 in NW 14.5 mph 25.1 mph 31% 0 in 557 W/m2
15:17 73.9 °F 43.2 °F 29.9 in NW 15.9 mph 25.1 mph 33% 0 in 580 W/m2
15:22 73.4 °F 43.3 °F 29.9 in NW 17.4 mph 25.1 mph 34% 0 in 518 W/m2
15:27 73.6 °F 44.2 °F 29.9 in NW 9.2 mph 25.1 mph 35% 0 in 681 W/m2
15:32 73.9 °F 44.6 °F 29.9 in NW 16.8 mph 24.4 mph 35% 0 in 642 W/m2
15:37 73.8 °F 43.7 °F 29.9 in NW 13 mph 22.1 mph 34% 0 in 738 W/m2
15:42 74.3 °F 43.3 °F 29.9 in NW 9.8 mph 24.4 mph 33% 0 in 750 W/m2
15:47 74.3 °F 43.3 °F 29.9 in NW 11.4 mph 24.4 mph 33% 0 in 491 W/m2
15:52 73.2 °F 41.5 °F 29.9 in NNW 14.5 mph 26.6 mph 32% 0 in 493 W/m2
15:57 73 °F 42.3 °F 29.9 in NW 9.2 mph 26.6 mph 33% 0 in 759 W/m2
16:02 74.1 °F 44.8 °F 29.9 in NW 13.6 mph 22.8 mph 35% 0 in 717 W/m2
16:07 74.1 °F 44.8 °F 29.9 in NW 8.3 mph 22.8 mph 35% 0 in 527 W/m2
16:12 73.6 °F 44.2 °F 29.9 in NW 6.9 mph 22.8 mph 35% 0 in 439 W/m2
16:17 73.4 °F 44.1 °F 29.9 in NW 6 mph 20.6 mph 35% 0 in 594 W/m2
16:22 74.3 °F 45 °F 29.9 in NW 9.8 mph 17.4 mph 35% 0 in 463 W/m2
16:27 73.6 °F 44.2 °F 29.9 in NW 4.5 mph 18.3 mph 35% 0 in 476 W/m2
16:32 74.1 °F 44.8 °F 29.8 in NW 8.3 mph 22.1 mph 35% 0 in 678 W/m2
16:37 74.3 °F 45 °F 29.9 in NW 12.1 mph 22.1 mph 35% 0 in 549 W/m2
16:42 73.8 °F 45.1 °F 29.8 in NNW 9.8 mph 21.3 mph 36% 0 in 633 W/m2
16:47 74.3 °F 45 °F 29.8 in NNW 12.1 mph 21.3 mph 35% 0 in 620 W/m2
16:52 74.3 °F 45 °F 29.8 in NW 11.4 mph 18.3 mph 35% 0 in 241 W/m2
16:57 72.5 °F 42.6 °F 29.8 in NW 10.7 mph 19 mph 34% 0 in 235 W/m2
17:02 71.8 °F 42.6 °F 29.8 in NW 11.4 mph 19.7 mph 35% 0 in 231 W/m2
17:07 71.6 °F 43.3 °F 29.8 in NW 12.1 mph 19.7 mph 36% 0 in 246 W/m2
17:12 71.4 °F 43.2 °F 29.8 in NW 8.3 mph 21.3 mph 36% 0 in 265 W/m2
17:17 71.8 °F 44.1 °F 29.8 in NNW 13.6 mph 21.3 mph 37% 0 in 255 W/m2
17:22 71.6 °F 44.1 °F 29.8 in NNW 7.6 mph 19.7 mph 37% 0 in 334 W/m2
17:27 72 °F 42.8 °F 29.8 in NNW 12.1 mph 21.3 mph 35% 0 in 292 W/m2
17:32 71.6 °F 43.3 °F 29.8 in NNW 13 mph 22.1 mph 36% 0 in 332 W/m2
17:37 71.6 °F 43.3 °F 29.8 in NW 9.8 mph 22.1 mph 36% 0 in 266 W/m2
17:42 71.8 °F 44.1 °F 29.8 in NW 9.8 mph 17.4 mph 37% 0 in 316 W/m2
17:47 73 °F 44.4 °F 29.8 in NW 10.7 mph 20.6 mph 36% 0 in 385 W/m2
17:52 73.4 °F 44.1 °F 29.8 in NW 10.7 mph 20.6 mph 35% 0 in 486 W/m2
17:57 73 °F 43 °F 29.8 in NW 9.8 mph 24.4 mph 34% 0 in 212 W/m2
18:02 71.1 °F 42.8 °F 29.8 in NW 14.5 mph 24.4 mph 36% 0 in 179 W/m2
18:07 70.3 °F 43 °F 29.8 in NW 9.2 mph 22.8 mph 37% 0 in 155 W/m2
18:12 70.3 °F 45 °F 29.8 in NW 13 mph 22.8 mph 40% 0 in 143 W/m2
18:17 70.3 °F 44.2 °F 29.8 in NNW 8.3 mph 22.8 mph 39% 0 in 130 W/m2
18:22 70.3 °F 44.2 °F 29.8 in NNW 10.7 mph 22.8 mph 39% 0 in 123 W/m2
18:27 70 °F 43.9 °F 29.8 in NNW 13.6 mph 22.1 mph 39% 0 in 115 W/m2
18:32 69.8 °F 43.9 °F 29.8 in NW 15.2 mph 22.1 mph 39% 0 in 107 W/m2
18:37 69.8 °F 43.9 °F 29.8 in NW 9.2 mph 20.6 mph 39% 0 in 100 W/m2
18:42 69.8 °F 43.9 °F 29.8 in NW 9.8 mph 22.1 mph 39% 0 in 97 W/m2
18:47 69.6 °F 44.2 °F 29.8 in NW 6.9 mph 22.1 mph 40% 0 in 95 W/m2
18:52 69.6 °F 44.2 °F 29.8 in NW 5.4 mph 16.8 mph 40% 0 in 86 W/m2
18:57 69.4 °F 44.1 °F 29.8 in NW 6 mph 19 mph 40% 0 in 82 W/m2
19:02 69.3 °F 43.3 °F 29.8 in NW 8.3 mph 19 mph 39% 0 in 80 W/m2
19:07 69.1 °F 43.9 °F 29.8 in NW 9.2 mph 15.9 mph 40% 0 in 71 W/m2
19:12 69.1 °F 44.4 °F 29.8 in WNW 7.6 mph 15.9 mph 41% 0 in 58 W/m2
19:17 68.9 °F 43.5 °F 29.8 in NW 7.6 mph 16.8 mph 40% 0 in 66 W/m2
19:22 68.7 °F 43.3 °F 29.8 in NNW 9.2 mph 16.8 mph 40% 0 in 62 W/m2
19:27 68.7 °F 43.3 °F 29.8 in NW 6 mph 14.5 mph 40% 0 in 46 W/m2
19:32 68.5 °F 43.9 °F 29.8 in NW 6 mph 13.6 mph 41% 0 in 47 W/m2
19:37 68.4 °F 43.2 °F 29.8 in NW 5.4 mph 12.1 mph 40% 0 in 48 W/m2
19:42 68.4 °F 43.9 °F 29.8 in NNW 7.6 mph 13 mph 41% 0 in 41 W/m2
19:47 68.2 °F 43 °F 29.8 in NW 5.4 mph 13.6 mph 40% 0 in 35 W/m2
19:52 68.2 °F 43 °F 29.8 in NW 13 mph 19 mph 40% 0 in 33 W/m2
19:57 68 °F 43.3 °F 29.8 in NW 8.3 mph 19 mph 41% 0 in 28 W/m2
20:02 67.8 °F 43.9 °F 29.8 in NW 9.8 mph 19 mph 42% 0 in 22 W/m2
20:07 67.8 °F 43.9 °F 29.8 in NW 9.2 mph 20.6 mph 42% 0 in 18 W/m2
20:12 67.6 °F 43.7 °F 29.8 in NW 12.1 mph 21.3 mph 42% 0 in 14 W/m2
20:17 67.5 °F 43.5 °F 29.8 in NW 5.4 mph 21.3 mph 42% 0 in 12 W/m2
20:22 67.3 °F 44.1 °F 29.8 in NW 8.3 mph 21.3 mph 43% 0 in 13 W/m2
20:27 66.9 °F 43.7 °F 29.8 in NW 6.9 mph 19.7 mph 43% 0 in 10 W/m2
20:32 66.9 °F 44.2 °F 29.8 in NNW 9.8 mph 19.7 mph 44% 0 in 6 W/m2
20:37 66.9 °F 44.2 °F 29.8 in NW 6.9 mph 15.9 mph 44% 0 in 4 W/m2
20:43 66.7 °F 44.2 °F 29.8 in NW 6 mph 17.4 mph 44% 0 in 1 W/m2
20:48 66.4 °F 44.4 °F 29.8 in NW 5.4 mph 15.2 mph 45% 0 in 0 W/m2
20:53 66.2 °F 44.2 °F 29.8 in NW 4.5 mph 13 mph 45% 0 in 0 W/m2
20:58 65.8 °F 44.4 °F 29.8 in NW 4.5 mph 13 mph 46% 0 in 0 W/m2
21:04 65.7 °F 45 °F 29.8 in NW 10.7 mph 15.2 mph 47% 0 in 0 W/m2
21:09 65.7 °F 45 °F 29.8 in NW 5.4 mph 15.2 mph 47% 0 in 0 W/m2
21:14 65.5 °F 44.8 °F 29.8 in NW 3.8 mph 15.2 mph 47% 0 in 0 W/m2
21:19 65.3 °F 44.6 °F 29.8 in NW 0.7 mph 9.8 mph 47% 0 in 0 W/m2
21:25 64.9 °F 44.8 °F 29.8 in NW 2.2 mph 9.8 mph 48% 0 in 0 W/m2
21:30 64.8 °F 44.6 °F 29.8 in NW 6 mph 11.4 mph 48% 0 in 0 W/m2
21:35 64.8 °F 44.6 °F 29.8 in NW 7.6 mph 14.5 mph 48% 0 in 0 W/m2
21:40 64.8 °F 44.6 °F 29.8 in NW 3.8 mph 14.5 mph 48% 0 in 0 W/m2
21:45 64.6 °F 44.4 °F 29.8 in NW 4.5 mph 10.7 mph 48% 0 in 0 W/m2
21:50 64.6 °F 44.4 °F 29.8 in WNW 6 mph 14.5 mph 48% 0 in 0 W/m2
21:55 64.4 °F 44.2 °F 29.8 in NW 6.9 mph 14.5 mph 48% 0 in 0 W/m2
22:00 64.2 °F 44.8 °F 29.8 in NW 0.7 mph 10.7 mph 49% 0 in 0 W/m2
22:05 63.9 °F 44.2 °F 29.8 in NW 2.2 mph 9.2 mph 49% 0 in 0 W/m2
22:10 63.5 °F 44.4 °F 29.8 in NW 2.2 mph 6 mph 50% 0 in 0 W/m2
22:15 63.3 °F 44.4 °F 29.8 in NW 3.8 mph 8.3 mph 50% 0 in 0 W/m2
22:20 63.3 °F 43.9 °F 29.8 in NW 3.8 mph 8.3 mph 49% 0 in 0 W/m2
22:25 63.3 °F 44.4 °F 29.8 in NW 3.8 mph 8.3 mph 50% 0 in 0 W/m2
22:30 63.1 °F 44.2 °F 29.8 in WNW 3.8 mph 7.6 mph 50% 0 in 0 W/m2
22:47 62.6 °F 43.7 °F 29.8 in NW 4.5 mph 8.3 mph 50% 0 in 0 W/m2
22:53 62.6 °F 43.7 °F 29.8 in WNW 1.6 mph 8.3 mph 50% 0 in 0 W/m2
22:58 62.2 °F 44.4 °F 29.8 in WNW 3.8 mph 4.5 mph 52% 0 in 0 W/m2
23:03 62.1 °F 44.2 °F 29.8 in WNW 3.8 mph 7.6 mph 52% 0 in 0 W/m2
23:08 61.9 °F 44.1 °F 29.8 in WNW 0.7 mph 7.6 mph 52% 0 in 0 W/m2
23:13 61.5 °F 43.7 °F 29.9 in Calm   6.9 mph 52% 0 in 0 W/m2
23:19 61.2 °F 43.9 °F 29.9 in West 1.6 mph 2.2 mph 53% 0 in 0 W/m2
23:24 60.8 °F 43.5 °F 29.8 in NW 1.6 mph 3.8 mph 53% 0 in 0 W/m2
23:29 60.4 °F 43.7 °F 29.8 in WNW 3.1 mph 4.5 mph 54% 0 in 0 W/m2
23:34 60.4 °F 44.2 °F 29.9 in NW 3.1 mph 5.4 mph 55% 0 in 0 W/m2
23:39 60.4 °F 44.2 °F 29.8 in NW 3.1 mph 5.4 mph 55% 0 in 0 W/m2
23:44 60.3 °F 44.1 °F 29.8 in NW 3.1 mph 7.6 mph 55% 0 in 0 W/m2
23:49 60.1 °F 43.9 °F 29.8 in NW 3.8 mph 7.6 mph 55% 0 in 0 W/m2
23:54 60.1 °F 44.2 °F 29.8 in NW 2.2 mph 6.9 mph 56% 0 in 0 W/m2
23:59 59.7 °F 44.1 °F 29.8 in NW 2.2 mph 6 mph 56% 0 in 0 W/m2
Northern Hawkes Bay. New Zealand Historic Data
Compliments of Weather Underground - 2 mb